Plymouth, NH

3:27 AM EDT on October 23, 2017 (GMT -0400)
Plymouth

Weather History for K1P1 - March, 2013

Change the Weather History Date:

Sunday, March 17, 2013

  Actual Average (KLCI) Record (KLCI)
Temperature  
Mean Temperature 22 °F -  
Max Temperature 27 °F 44 °F 66 °F (2003)
Min Temperature 17 °F 22 °F 5 °F (1997)
Degree Days  
Heating Degree Days 43    
Moisture  
Dew Point 5 °F    
Average Humidity 51    
Maximum Humidity 86    
Minimum Humidity 27    
Precipitation  
Precipitation 0.00 in - - ()
Sea Level Pressure  
Sea Level Pressure 30.03 in    
Wind  
Wind Speed 6 mph (WNW)    
Max Wind Speed 26 mph    
Max Gust Speed 34 mph    
Visibility 10 miles    
Events      
Averages and records for this station are not official NWS values.
T = Trace of Precipitation, MM = Missing Value Source: NWS Daily Summary

Daily Weather History Graph

Daily Weather History Graph

Search for Another Location

Airport or City:

Trip Planner

Search our weather history database for the weather conditions in past years. The results will help you decide how hot, cold, wet, or windy it might be!

Date:

Astronomy

Mar. 17, 2013 Rise Set
Actual Time 6:55 AM EDT 6:55 PM EDT
Civil Twilight 6:26 AM EDT 7:24 PM EDT
Nautical Twilight 5:53 AM EDT 7:58 PM EDT
Astronomical Twilight 5:19 AM EDT 8:32 PM EDT
Moon 9:55 AM EDT (3/17) 12:11 AM EDT (3/17)
Length of Visible Light 12h 58m
Length of Day
12h 00m
Waxing Crescent, 31% of the Moon is Illuminated
Mar 17
Waxing Crescent
Mar 19
First Quarter
Mar 27
Full
Apr 3
Last Quarter
Apr 10
New

Hourly Weather History & Observations

Time (EDT) Temp. Windchill Dew Point Humidity Pressure Visibility Wind Dir Wind Speed Gust Speed Precip Events Conditions
12:15 AM 22.8 °F - 12.0 °F 63% 29.87 in 10.0 mi Calm Calm - N/A   Unknown
12:35 AM 23.0 °F - 13.1 °F 66% 29.87 in 10.0 mi Calm Calm - N/A   Unknown
12:55 AM 22.5 °F 16.3 °F 13.1 °F 67% 29.88 in 10.0 mi WNW 4.6 mph - N/A   Unknown
1:15 AM 22.1 °F - 12.7 °F 67% 29.87 in 10.0 mi Calm Calm - N/A   Unknown
1:35 AM 19.9 °F - 13.8 °F 77% 29.88 in 10.0 mi Calm Calm - N/A   Unknown
1:55 AM 19.8 °F - 14.0 °F 78% 29.88 in 10.0 mi Calm Calm - N/A   Unknown
2:15 AM 19.2 °F - 13.8 °F 80% 29.88 in 10.0 mi Calm Calm - N/A   Unknown
2:35 AM 19.0 °F - 13.6 °F 79% 29.88 in 10.0 mi Calm Calm - N/A   Unknown
2:55 AM 19.2 °F - 13.3 °F 78% 29.88 in 10.0 mi Calm Calm - N/A   Unknown
3:15 AM 18.9 °F - 13.3 °F 79% 29.89 in 10.0 mi Calm Calm - N/A   Unknown
3:35 AM 18.5 °F - 13.1 °F 79% 29.89 in 10.0 mi Calm Calm - N/A   Unknown
3:55 AM 17.8 °F - 13.1 °F 82% 29.90 in 10.0 mi Calm Calm - N/A   Unknown
4:15 AM 17.6 °F - 14.0 °F 86% 29.91 in 10.0 mi Calm Calm - N/A   Unknown
4:35 AM 21.2 °F 13.6 °F 12.4 °F 69% 29.91 in 10.0 mi West 5.8 mph - N/A   Unknown
4:55 AM 21.0 °F 14.6 °F 11.7 °F 67% 29.91 in 10.0 mi West 4.6 mph - N/A   Unknown
5:15 AM 20.3 °F 12.5 °F 11.3 °F 68% 29.91 in 10.0 mi West 5.8 mph - N/A   Unknown
5:35 AM 19.9 °F 13.4 °F 11.3 °F 69% 29.91 in 10.0 mi West 4.6 mph - N/A   Unknown
5:55 AM 19.8 °F 11.9 °F 11.8 °F 71% 29.92 in 10.0 mi West 5.8 mph - N/A   Unknown
6:15 AM 19.2 °F - 11.8 °F 73% 29.92 in 10.0 mi Calm Calm - N/A   Unknown
6:35 AM 18.9 °F 12.1 °F 12.0 °F 75% 29.93 in 10.0 mi WNW 4.6 mph - N/A   Unknown
6:55 AM 18.7 °F 11.9 °F 11.7 °F 74% 29.94 in 10.0 mi WNW 4.6 mph - N/A   Unknown
7:15 AM 18.5 °F 11.7 °F 11.7 °F 75% 29.94 in 10.0 mi West 4.6 mph - N/A   Unknown
7:35 AM 18.5 °F 11.7 °F 11.7 °F 75% 29.94 in 10.0 mi West 4.6 mph - N/A   Unknown
7:55 AM 19.2 °F 11.3 °F 11.3 °F 71% 29.96 in 10.0 mi West 5.8 mph - N/A   Unknown
8:15 AM 19.4 °F 14.3 °F 10.8 °F 69% 29.96 in 10.0 mi West 3.5 mph - N/A   Unknown
8:35 AM 20.1 °F 12.3 °F 9.9 °F 64% 29.97 in 10.0 mi WNW 5.8 mph - N/A   Unknown
9:15 AM 22.1 °F 13.7 °F 10.0 °F 60% 29.98 in 10.0 mi WNW 6.9 mph - N/A   Unknown
9:35 AM 23.0 °F 15.8 °F 8.8 °F 55% 29.98 in 10.0 mi WNW 5.8 mph - N/A   Unknown
9:55 AM 24.1 °F 15.2 °F 8.8 °F 52% 29.99 in 10.0 mi West 8.1 mph - N/A   Unknown
10:15 AM 25.7 °F 15.7 °F 9.5 °F 50% 29.98 in 10.0 mi West 10.4 mph 16.1 mph N/A   Unknown
10:35 AM 25.7 °F 14.0 °F 9.9 °F 51% 29.99 in 10.0 mi NW 13.8 mph - N/A   Unknown
11:15 AM 25.5 °F 13.8 °F 10.2 °F 52% 30.01 in 10.0 mi NW 13.8 mph 19.6 mph N/A   Unknown
11:35 AM 25.0 °F 11.7 °F 10.0 °F 53% 30.03 in 10.0 mi WNW 17.3 mph 26.5 mph N/A   Unknown
11:55 AM 25.7 °F 15.1 °F 9.9 °F 51% 30.03 in 10.0 mi WNW 11.5 mph 24.2 mph N/A   Unknown
12:15 PM 25.9 °F 12.5 °F 6.1 °F 43% 30.04 in 10.0 mi WNW 18.4 mph 27.6 mph N/A   Unknown
12:35 PM 26.1 °F 14.0 °F 5.2 °F 41% 30.03 in 10.0 mi West 15.0 mph 27.6 mph N/A   Unknown
12:55 PM 26.1 °F 11.0 °F 4.3 °F 39% 30.04 in 10.0 mi WNW 24.2 mph 33.4 mph N/A   Unknown
1:15 PM 26.4 °F 13.2 °F 2.1 °F 35% 30.05 in 10.0 mi WNW 18.4 mph 29.9 mph N/A   Unknown
1:35 PM 26.6 °F 12.0 °F 1.8 °F 34% 30.05 in 10.0 mi West 23.0 mph 33.4 mph N/A   Unknown
1:55 PM 27.9 °F 19.8 °F 2.3 °F 34% 30.05 in 10.0 mi WNW 8.1 mph 31.1 mph N/A   Unknown
2:15 PM 27.5 °F 12.6 °F 0.9 °F 32% 30.05 in 10.0 mi NW 25.3 mph 34.5 mph N/A   Unknown
2:35 PM 26.8 °F 15.9 °F 0.9 °F 33% 30.06 in 10.0 mi NW 12.7 mph 28.8 mph N/A   Unknown
2:55 PM 27.3 °F 18.4 °F 1.0 °F 32% 30.05 in 10.0 mi WNW 9.2 mph 27.6 mph N/A   Unknown
3:15 PM 27.5 °F 13.5 °F -0.2 °F 30% 30.05 in 10.0 mi NW 21.9 mph 32.2 mph N/A   Unknown
3:35 PM 27.1 °F 11.8 °F -0.9 °F 30% 30.06 in 10.0 mi WNW 26.5 mph 34.5 mph N/A   Unknown
4:15 PM 27.5 °F 18.0 °F -0.2 °F 30% 30.07 in 10.0 mi WNW 10.4 mph 28.8 mph N/A   Unknown
4:55 PM 27.5 °F 15.0 °F -0.0 °F 31% 30.09 in 10.0 mi NW 17.3 mph 25.3 mph N/A   Unknown
5:15 PM 27.0 °F 14.7 °F -1.5 °F 29% 30.10 in 10.0 mi NW 16.1 mph 28.8 mph N/A   Unknown
5:35 PM 26.6 °F 13.1 °F -3.6 °F 27% 30.11 in 10.0 mi WNW 19.6 mph 28.8 mph N/A   Unknown
5:55 PM 26.2 °F 13.4 °F -2.2 °F 29% 30.11 in 10.0 mi WNW 17.3 mph 26.5 mph N/A   Unknown
6:15 PM 25.7 °F 11.9 °F -3.1 °F 29% 30.13 in 10.0 mi WNW 19.6 mph 27.6 mph N/A   Unknown
6:35 PM 25.5 °F 13.3 °F -3.8 °F 28% 30.14 in 10.0 mi NW 15.0 mph 20.7 mph N/A   Unknown
6:55 PM 24.6 °F 15.8 °F -3.8 °F 29% 30.15 in 10.0 mi NW 8.1 mph 19.6 mph N/A   Unknown
7:15 PM 23.9 °F 12.3 °F -4.5 °F 29% 30.16 in 10.0 mi NW 12.7 mph 20.7 mph N/A   Unknown
7:35 PM 23.4 °F 13.5 °F -4.4 °F 30% 30.17 in 10.0 mi NW 9.2 mph 16.1 mph N/A   Unknown
7:55 PM 23.0 °F 11.1 °F -5.1 °F 29% 30.19 in 10.0 mi NW 12.7 mph 23.0 mph N/A   Unknown
8:15 PM 22.6 °F 14.3 °F -4.9 °F 30% 30.20 in 10.0 mi North 6.9 mph - N/A   Unknown
8:35 PM 21.9 °F 12.5 °F -4.2 °F 32% 30.21 in 10.0 mi NW 8.1 mph - N/A   Unknown
8:55 PM 21.4 °F 11.9 °F -4.2 °F 33% 30.23 in 10.0 mi NNW 8.1 mph - N/A   Unknown
9:15 PM 21.0 °F 14.6 °F -3.8 °F 34% 30.24 in 10.0 mi NW 4.6 mph - N/A   Unknown
9:35 PM 20.3 °F 9.8 °F -2.9 °F 36% 30.25 in 10.0 mi NW 9.2 mph - N/A   Unknown
9:55 PM 20.3 °F 8.3 °F -1.5 °F 39% 30.26 in 10.0 mi WNW 11.5 mph - N/A   Unknown
10:15 PM 20.1 °F 10.3 °F -1.3 °F 39% 30.27 in 10.0 mi WNW 8.1 mph - N/A   Unknown
10:35 PM 19.4 °F 9.5 °F -1.1 °F 41% 30.27 in 10.0 mi WNW 8.1 mph - N/A   Unknown
10:55 PM 19.4 °F 8.6 °F -1.5 °F 40% 30.28 in 10.0 mi WNW 9.2 mph 18.4 mph N/A   Unknown
11:35 PM 19.4 °F 5.5 °F -3.8 °F 36% 30.29 in 10.0 mi NW 15.0 mph 20.7 mph N/A   Unknown
11:55 PM 19.2 °F 10.2 °F -4.9 °F 34% 30.29 in 10.0 mi NW 6.9 mph - N/A   Unknown